QIANFAN-52 (62253 NORAD) Tracking and Keplerian Element Data

This shows tracking and keplerian element data for the satellite.

Feedback or suggestion? Click here.




ElementValue
Catalog62253
NameQIANFAN-52
Epoch Orbit2559
Epoch Day34.75834619
Epoch Year2025
RAAN73.1813
Inclination88.989
Eccentricity0.0016908
Argument of Perigee30.8671
Mean Anonmoly329.3509
Mean Motion14.21025279
Decay Rate4.47E-06
L11 62253U 24232S 25034.75834619 .00000447 00000+0 19912-3 0 9997
L22 62253 88.9890 73.1813 0016908 30.8671 329.3509 14.21025279 25599



Live tracking and technical data element details for QIANFAN-52 (NORAD 62253). QIANFAN-52 can be tracked NOW for your location showing map with azimuth and elevation plus other details from your city location.







IsCatalogInMostPopularTable: catalog: 62253, numindb: 12
Update: records affected: 1



GetName: 62253 QIANFAN-52

Hit Count: updated at: Mon, 19 May 2025 02:30:43 GMT